NORTHEAST SUFFOLK  -  Coastal Flood Statement Coastal Flood Statement     Rip Current Statement Rip Current Statement     Rip Current Statement Rip Current Statement        NORTHWEST SUFFOLK  -  Coastal Flood Statement Coastal Flood Statement     Rip Current Statement Rip Current Statement     Rip Current Statement Rip Current Statement        SOUTHEAST SUFFOLK  -  Coastal Flood Statement Coastal Flood Statement     Rip Current Statement Rip Current Statement     Rip Current Statement Rip Current Statement        SOUTHWEST SUFFOLK  -  Coastal Flood Statement Coastal Flood Statement     Rip Current Statement Rip Current Statement     Rip Current Statement Rip Current Statement        NORTHERN NASSAU  -  Rip Current Statement Rip Current Statement        NORTHERN QUEENS  -  Rip Current Statement Rip Current Statement        SOUTHERN NASSAU  -  Rip Current Statement Rip Current Statement        SOUTHERN QUEENS  -  Rip Current Statement Rip Current Statement      

Active alerts

Northwest Suffolk
  Details for Northwest Suffolk Coastal Flood Statement  +2 additional alerts
Southwest Suffolk
  Details for Southwest Suffolk Coastal Flood Statement  +2 additional alerts
Northeast Suffolk
  Details for Northeast Suffolk Coastal Flood Statement  +2 additional alerts
Southeast Suffolk
  Details for Southeast Suffolk Coastal Flood Statement  +2 additional alerts
Northern Queens
  Details for Northern Queens Rip Current Statement
Southern Queens
  Details for Southern Queens Rip Current Statement
Northern Nassau
  Details for Northern Nassau Rip Current Statement
Southern Nassau
  Details for Southern Nassau Rip Current Statement


WXM80 ListenWXM80 Stop

You find our weather info also at:

UK Metoffice

WeatherCloud

Weather Underground

Northeastern Weather Network

AWEKAS

Citizen Weather Observer Program (CWOP)

HAMweather, WeatherForYou, PWS Weather


Weather Underground History page Text

Daily Summary for September 11, 2017 Units:  English    Metric   Both
« Previous Day
Next Day »
Daily Weekly Monthly Yearly Custom
  High: Low: Average:
Temperature: 79.9 °F 55.8 °F 66.9 °F
Dew Point: 61.3 °F 51.8 °F 55.6 °F
Humidity: 89 % 42 % 69 %
Wind Speed: 9.0 mph 0.0 mph 1.5 mph
Wind Gust: 15.0 mph - -
Wind:- - SW
Pressure: 30.31 in 30.06 in -
Precipitation: 0.00 in    
Historical Graphs
 
 
Tabular Data for September 11, 2017
Time Temperature Dew Point Pressure Wind Wind Speed Wind Gust Humidity Rainfall Rate (Hourly)
00:01 62.3 °F 53.5 °F 30.30 in Calm     73 % 0.00 in
00:12 62.0 °F 53.6 °F 30.30 in Calm   2.3 mph 74 % 0.00 in
00:17 61.9 °F 53.5 °F 30.31 in Calm     74 % 0.00 in
00:22 61.7 °F 53.7 °F 30.30 in Calm     75 % 0.00 in
00:27 61.5 °F 53.9 °F 30.31 in Calm     76 % 0.00 in
00:32 61.3 °F 53.7 °F 30.30 in NW 0.1 mph 2.3 mph 76 % 0.00 in
00:37 61.1 °F 53.5 °F 30.30 in NNE 0.7 mph 2.3 mph 76 % 0.00 in
00:42 60.9 °F 53.3 °F 30.30 in Calm     76 % 0.00 in
00:47 60.7 °F 53.4 °F 30.30 in North 0.4 mph 1.2 mph 77 % 0.00 in
00:52 60.5 °F 53.6 °F 30.30 in NNW 2.2 mph 4.6 mph 78 % 0.00 in
00:57 60.4 °F 53.5 °F 30.30 in NE 3.6 mph 9.2 mph 78 % 0.00 in
01:02 60.5 °F 53.6 °F 30.30 in NNE 0.6 mph 1.2 mph 78 % 0.00 in
01:07 60.5 °F 53.6 °F 30.30 in North 0.9 mph 3.5 mph 78 % 0.00 in
01:12 60.6 °F 53.7 °F 30.30 in NNE 2.6 mph 5.8 mph 78 % 0.00 in
01:17 60.7 °F 53.8 °F 30.30 in NNE 0.6 mph 3.5 mph 78 % 0.00 in
01:22 60.8 °F 53.9 °F 30.30 in North 0.2 mph 1.2 mph 78 % 0.00 in
01:27 60.8 °F 53.9 °F 30.29 in NNE 0.4 mph 4.6 mph 78 % 0.00 in
01:32 60.8 °F 53.5 °F 30.29 in NNW 0.6 mph 3.5 mph 77 % 0.00 in
01:37 60.9 °F 53.6 °F 30.29 in North 3.8 mph 10.0 mph 77 % 0.00 in
01:42 60.9 °F 53.6 °F 30.28 in NW 0.2 mph 2.0 mph 77 % 0.00 in
01:47 61.0 °F 53.7 °F 30.28 in NNW 3.5 mph 6.9 mph 77 % 0.00 in
01:52 61.1 °F 53.8 °F 30.28 in NNW 0.1 mph 2.3 mph 77 % 0.00 in
01:57 61.1 °F 53.5 °F 30.28 in NNE 3.2 mph 5.8 mph 76 % 0.00 in
02:02 61.2 °F 53.6 °F 30.27 in North 3.7 mph 6.9 mph 76 % 0.00 in
02:07 61.2 °F 53.2 °F 30.27 in NE 4.8 mph 10.4 mph 75 % 0.00 in
02:12 61.3 °F 53.7 °F 30.27 in North 5.7 mph 8.1 mph 76 % 0.00 in
02:17 61.4 °F 53.8 °F 30.27 in NNE 4.3 mph 9.2 mph 76 % 0.00 in
02:22 61.5 °F 53.5 °F 30.26 in NNE 4.5 mph 6.9 mph 75 % 0.00 in
02:27 61.5 °F 53.5 °F 30.26 in NNE 5.8 mph 9.2 mph 75 % 0.00 in
02:32 61.6 °F 53.2 °F 30.26 in North 5.5 mph 9.2 mph 74 % 0.00 in
02:37 61.6 °F 53.6 °F 30.26 in North 8.2 mph 11.5 mph 75 % 0.00 in
02:42 61.6 °F 53.2 °F 30.26 in North 4.2 mph 9.0 mph 74 % 0.00 in
02:47 61.6 °F 53.2 °F 30.26 in NNE 6.8 mph 11.0 mph 74 % 0.00 in
02:52 61.6 °F 53.2 °F 30.26 in North 7.4 mph 11.5 mph 74 % 0.00 in
02:57 61.6 °F 53.2 °F 30.26 in North 4.1 mph 9.2 mph 74 % 0.00 in
03:02 61.6 °F 53.6 °F 30.26 in NNW 6.7 mph 11.5 mph 75 % 0.00 in
03:07 61.5 °F 53.1 °F 30.26 in North 4.3 mph 8.1 mph 74 % 0.00 in
03:12 61.5 °F 52.8 °F 30.26 in North 4.6 mph 11.5 mph 73 % 0.00 in
03:17 61.4 °F 53.0 °F 30.26 in NNE 6.1 mph 9.2 mph 74 % 0.00 in
03:22 61.4 °F 53.4 °F 30.26 in NNE 8.1 mph 11.0 mph 75 % 0.00 in
03:28 61.3 °F 53.3 °F 30.26 in NE 6.9 mph 10.0 mph 75 % 0.00 in
03:33 61.3 °F 53.7 °F 30.26 in NE 6.5 mph 10.4 mph 76 % 0.00 in
03:38 61.3 °F 53.3 °F 30.26 in NNE 7.3 mph 15.0 mph 75 % 0.00 in
03:43 61.2 °F 53.2 °F 30.26 in NNE 9.0 mph 13.8 mph 75 % 0.00 in
03:48 61.3 °F 53.3 °F 30.26 in NNE 3.7 mph 11.5 mph 75 % 0.00 in
03:53 61.2 °F 53.2 °F 30.26 in NNE 5.6 mph 10.4 mph 75 % 0.00 in
03:58 61.2 °F 53.6 °F 30.26 in North 2.7 mph 6.9 mph 76 % 0.00 in
04:03 61.1 °F 53.5 °F 30.25 in NNE 6.6 mph 10.4 mph 76 % 0.00 in
04:08 61.1 °F 53.5 °F 30.26 in NNE 4.4 mph 11.5 mph 76 % 0.00 in
04:13 61.0 °F 53.4 °F 30.26 in NNE 5.1 mph 9.2 mph 76 % 0.00 in
04:18 60.9 °F 53.3 °F 30.26 in North 4.9 mph 8.1 mph 76 % 0.00 in
04:23 60.8 °F 53.2 °F 30.26 in NNE 6.1 mph 10.4 mph 76 % 0.00 in
04:28 60.7 °F 53.8 °F 30.26 in NNE 3.6 mph 6.9 mph 78 % 0.00 in
04:33 60.6 °F 53.7 °F 30.26 in NNE 3.0 mph 5.0 mph 78 % 0.00 in
04:38 60.4 °F 53.5 °F 30.26 in NNE 3.8 mph 6.0 mph 78 % 0.00 in
04:43 60.3 °F 53.4 °F 30.26 in North 1.3 mph 5.8 mph 78 % 0.00 in
04:48 60.2 °F 53.3 °F 30.26 in NNE 0.4 mph 1.0 mph 78 % 0.00 in
04:53 60.1 °F 53.6 °F 30.26 in NNE 0.1 mph 2.3 mph 79 % 0.00 in
04:59 60.0 °F 53.5 °F 30.26 in Calm     79 % 0.00 in
05:04 59.9 °F 53.4 °F 30.27 in Calm     79 % 0.00 in
05:09 59.7 °F 53.2 °F 30.26 in Calm     79 % 0.00 in
05:14 59.6 °F 53.4 °F 30.26 in Calm     80 % 0.00 in
05:19 59.4 °F 52.9 °F 30.26 in NNE 0.5 mph 4.0 mph 79 % 0.00 in
05:24 59.2 °F 53.0 °F 30.26 in Calm     80 % 0.00 in
05:29 59.0 °F 52.8 °F 30.26 in Calm     80 % 0.00 in
05:34 58.8 °F 52.6 °F 30.27 in NNE 0.2 mph 1.0 mph 80 % 0.00 in
05:39 58.6 °F 52.8 °F 30.26 in NNE 0.4 mph 3.5 mph 81 % 0.00 in
05:44 58.4 °F 52.9 °F 30.26 in NNE 0.5 mph 3.5 mph 82 % 0.00 in
05:49 58.2 °F 52.7 °F 30.26 in Calm     82 % 0.00 in
05:54 58.1 °F 52.6 °F 30.27 in Calm     82 % 0.00 in
05:59 57.9 °F 52.4 °F 30.26 in Calm     82 % 0.00 in
06:04 57.8 °F 52.7 °F 30.26 in NNE 0.1 mph 2.3 mph 83 % 0.00 in
06:15 57.5 °F 52.7 °F 30.26 in Calm     84 % 0.00 in
06:20 57.3 °F 52.5 °F 30.27 in Calm     84 % 0.00 in
06:25 57.1 °F 52.6 °F 30.27 in Calm     85 % 0.00 in
06:30 56.9 °F 52.4 °F 30.28 in North 0.8 mph 4.0 mph 85 % 0.00 in
06:35 56.7 °F 52.2 °F 30.27 in Calm   1.2 mph 85 % 0.00 in
06:40 56.6 °F 52.1 °F 30.27 in North 0.1 mph 1.2 mph 85 % 0.00 in
06:45 56.3 °F 51.8 °F 30.27 in Calm   2.3 mph 85 % 0.00 in
06:50 56.2 °F 52.1 °F 30.28 in North 0.3 mph 1.0 mph 86 % 0.00 in
06:55 56.0 °F 51.9 °F 30.28 in NNE 1.0 mph 3.5 mph 86 % 0.00 in
07:00 55.9 °F 52.1 °F 30.28 in Calm   1.2 mph 87 % 0.00 in
07:05 55.8 °F 52.0 °F 30.29 in NNW 0.6 mph 3.5 mph 87 % 0.00 in
07:10 55.8 °F 52.3 °F 30.29 in NNW 0.6 mph 2.3 mph 88 % 0.00 in
07:15 55.9 °F 52.4 °F 30.29 in North 0.5 mph 3.5 mph 88 % 0.00 in
07:21 55.9 °F 52.7 °F 30.29 in Calm   2.0 mph 89 % 0.00 in
07:26 56.0 °F 52.8 °F 30.30 in NNW 1.0 mph 2.0 mph 89 % 0.00 in
07:31 56.1 °F 52.9 °F 30.30 in Calm   2.0 mph 89 % 0.00 in
07:36 56.3 °F 53.1 °F 30.30 in NW 1.0 mph 4.0 mph 89 % 0.00 in
07:41 56.5 °F 53.0 °F 30.30 in WNW 0.7 mph 5.8 mph 88 % 0.00 in
07:45 56.7 °F 53.2 °F 30.30 in WNW 0.1 mph 2.3 mph 88 % 0.00 in
07:51 56.9 °F 53.4 °F 30.29 in NW 1.1 mph 2.0 mph 88 % 0.00 in
07:56 57.2 °F 53.4 °F 30.29 in WNW 1.0 mph 3.0 mph 87 % 0.00 in
08:01 57.5 °F 53.7 °F 30.29 in NW 1.1 mph 3.5 mph 87 % 0.00 in
08:06 57.8 °F 53.3 °F 30.29 in Calm   1.2 mph 85 % 0.00 in
08:11 58.0 °F 53.5 °F 30.29 in West 0.4 mph 2.3 mph 85 % 0.00 in
08:16 58.3 °F 53.8 °F 30.28 in NW 0.4 mph 3.0 mph 85 % 0.00 in
08:21 58.5 °F 54.0 °F 30.28 in Calm     85 % 0.00 in
08:26 58.7 °F 54.2 °F 30.28 in NW 1.2 mph 3.5 mph 85 % 0.00 in
08:31 59.0 °F 54.2 °F 30.28 in North 0.1 mph 1.2 mph 84 % 0.00 in
08:36 59.2 °F 54.4 °F 30.28 in WNW 1.7 mph 4.6 mph 84 % 0.00 in
08:41 59.4 °F 54.2 °F 30.27 in NW 0.6 mph 2.3 mph 83 % 0.00 in
08:46 59.6 °F 54.4 °F 30.27 in WNW 3.4 mph 4.6 mph 83 % 0.00 in
08:51 59.8 °F 54.3 °F 30.27 in WNW 0.3 mph 2.0 mph 82 % 0.00 in
08:56 60.0 °F 54.5 °F 30.28 in WNW 0.8 mph 4.6 mph 82 % 0.00 in
09:01 60.2 °F 54.7 °F 30.28 in Calm   3.5 mph 82 % 0.00 in
09:06 60.4 °F 54.9 °F 30.27 in West 2.3 mph 4.6 mph 82 % 0.00 in
09:11 60.6 °F 54.7 °F 30.28 in West 0.2 mph 1.2 mph 81 % 0.00 in
09:16 60.9 °F 55.0 °F 30.27 in North 2.9 mph 4.6 mph 81 % 0.00 in
09:21 61.1 °F 54.2 °F 30.27 in NNW 1.6 mph 3.5 mph 78 % 0.00 in
09:24 61.2 °F 54.3 °F 30.27 in WNW 1.4 mph 2.3 mph 78 % 0.00 in
09:29 61.4 °F 55.2 °F 30.27 in WNW 0.1 mph 1.0 mph 80 % 0.00 in
09:34 61.6 °F 55.0 °F 30.27 in WNW 0.4 mph 3.5 mph 79 % 0.00 in
09:39 61.7 °F 55.1 °F 30.27 in WNW 1.1 mph 2.3 mph 79 % 0.00 in
09:44 62.0 °F 54.7 °F 30.28 in Calm   3.5 mph 77 % 0.00 in
09:54 62.7 °F 54.7 °F 30.27 in WNW 0.8 mph 1.2 mph 75 % 0.00 in
09:59 63.1 °F 54.7 °F 30.27 in NNE 2.2 mph 3.5 mph 74 % 0.00 in
10:04 63.4 °F 55.0 °F 30.27 in NNW 1.4 mph 3.5 mph 74 % 0.00 in
10:09 63.6 °F 55.5 °F 30.27 in NW 1.1 mph 3.5 mph 75 % 0.00 in
10:14 63.8 °F 55.4 °F 30.27 in Calm   3.5 mph 74 % 0.00 in
10:19 64.0 °F 55.5 °F 30.27 in NW 0.7 mph 2.3 mph 74 % 0.00 in
10:24 64.2 °F 55.7 °F 30.27 in West 1.5 mph 3.5 mph 74 % 0.00 in
10:29 64.3 °F 55.8 °F 30.26 in North 1.0 mph 3.5 mph 74 % 0.00 in
10:30 64.4 °F 55.9 °F 30.26 in North 0.2 mph 1.2 mph 74 % 0.00 in
10:35 64.5 °F 56.0 °F 30.26 in WNW 1.7 mph 3.5 mph 74 % 0.00 in
10:40 64.7 °F 55.8 °F 30.26 in NNW 1.5 mph 3.5 mph 73 % 0.00 in
10:45 64.9 °F 55.7 °F 30.26 in NNW 1.8 mph 3.5 mph 72 % 0.00 in
10:50 65.3 °F 56.4 °F 30.25 in NW 0.4 mph 2.3 mph 73 % 0.00 in
10:55 65.5 °F 56.2 °F 30.25 in WNW 0.5 mph 1.2 mph 72 % 0.00 in
11:00 65.8 °F 56.1 °F 30.26 in NE 2.9 mph 5.8 mph 71 % 0.00 in
11:05 66.2 °F 56.1 °F 30.25 in West 2.8 mph 6.9 mph 70 % 0.00 in
11:11 66.6 °F 56.1 °F 30.26 in WNW 3.3 mph 4.6 mph 69 % 0.00 in
11:16 67.2 °F 56.2 °F 30.25 in West 2.0 mph 7.0 mph 68 % 0.00 in
11:21 67.9 °F 57.7 °F 30.25 in Calm   4.0 mph 70 % 0.00 in
11:26 68.8 °F 57.4 °F 30.24 in WNW 3.0 mph 4.6 mph 67 % 0.00 in
11:31 69.6 °F 57.7 °F 30.24 in WNW 1.0 mph 4.0 mph 66 % 0.00 in
11:36 70.4 °F 57.2 °F 30.23 in WNW 1.0 mph 6.0 mph 63 % 0.00 in
11:41 71.3 °F 57.1 °F 30.23 in NW 2.0 mph 5.0 mph 61 % 0.00 in
11:46 71.9 °F 56.8 °F 30.23 in WNW 2.0 mph 7.0 mph 59 % 0.00 in
11:51 72.7 °F 59.3 °F 30.23 in Calm   4.0 mph 63 % 0.00 in
11:56 73.2 °F 59.4 °F 30.22 in NW 1.0 mph 4.0 mph 62 % 0.00 in
12:01 73.9 °F 59.6 °F 30.22 in WNW 1.4 mph 3.5 mph 61 % 0.00 in
12:06 74.4 °F 58.2 °F 30.22 in North 2.9 mph 3.5 mph 57 % 0.00 in
12:11 74.8 °F 59.0 °F 30.21 in NNW 0.6 mph 2.3 mph 58 % 0.00 in
12:16 75.1 °F 58.8 °F 30.21 in NW 2.1 mph 4.6 mph 57 % 0.00 in
12:21 75.5 °F 59.7 °F 30.21 in West 2.4 mph 4.6 mph 58 % 0.00 in
12:26 75.7 °F 57.9 °F 30.21 in West 2.2 mph 3.5 mph 54 % 0.00 in
12:31 75.8 °F 60.0 °F 30.20 in North 1.0 mph 3.5 mph 58 % 0.00 in
12:36 76.0 °F 57.6 °F 30.20 in NNE 1.6 mph 3.5 mph 53 % 0.00 in
12:41 76.2 °F 59.4 °F 30.20 in NW 0.6 mph 3.5 mph 56 % 0.00 in
12:46 76.6 °F 58.7 °F 30.19 in NNE 1.0 mph 3.5 mph 54 % 0.00 in
12:51 76.9 °F 59.0 °F 30.19 in NE 3.2 mph 5.0 mph 54 % 0.00 in
12:56 77.0 °F 58.6 °F 30.19 in WNW 2.8 mph 3.5 mph 53 % 0.00 in
13:01 77.1 °F 58.6 °F 30.19 in NNW 0.6 mph 3.5 mph 53 % 0.00 in
13:06 77.4 °F 60.5 °F 30.19 in WNW 0.7 mph 3.5 mph 56 % 0.00 in
13:11 77.8 °F 60.8 °F 30.19 in WSW 1.6 mph 3.5 mph 56 % 0.00 in
13:16 78.0 °F 58.4 °F 30.19 in WNW 1.2 mph 3.5 mph 51 % 0.00 in
13:21 78.1 °F 59.6 °F 30.19 in NW 1.5 mph 3.5 mph 53 % 0.00 in
13:26 78.1 °F 59.0 °F 30.18 in WNW 3.1 mph 4.6 mph 52 % 0.00 in
13:32 78.4 °F 60.9 °F 30.18 in WNW 2.6 mph 4.0 mph 55 % 0.00 in
13:37 78.4 °F 59.3 °F 30.18 in WNW 2.6 mph 3.5 mph 52 % 0.00 in
13:42 78.5 °F 57.7 °F 30.18 in WSW 2.5 mph 5.0 mph 49 % 0.00 in
13:47 78.6 °F 59.0 °F 30.17 in WSW 2.1 mph 3.5 mph 51 % 0.00 in
13:52 78.8 °F 61.3 °F 30.17 in WSW 2.6 mph 4.6 mph 55 % 0.00 in
13:57 78.9 °F 58.7 °F 30.17 in WNW 0.9 mph 3.5 mph 50 % 0.00 in
14:02 78.9 °F 56.4 °F 30.18 in WSW 2.2 mph 4.6 mph 46 % 0.00 in
14:07 79.0 °F 59.3 °F 30.17 in SSW 1.4 mph 3.0 mph 51 % 0.00 in
14:12 79.0 °F 55.8 °F 30.17 in WSW 1.5 mph 5.8 mph 45 % 0.00 in
14:17 79.0 °F 55.8 °F 30.16 in West 2.8 mph 4.6 mph 45 % 0.00 in
14:22 79.0 °F 55.8 °F 30.16 in WSW 0.8 mph 3.0 mph 45 % 0.00 in
14:27 79.0 °F 56.5 °F 30.16 in WSW 2.6 mph 6.9 mph 46 % 0.00 in
14:33 79.1 °F 57.1 °F 30.16 in West 1.6 mph 3.5 mph 47 % 0.00 in
14:38 79.2 °F 58.4 °F 30.16 in WSW 2.8 mph 6.9 mph 49 % 0.00 in
14:43 79.1 °F 56.5 °F 30.16 in WNW 2.6 mph 4.0 mph 46 % 0.00 in
14:48 79.1 °F 57.1 °F 30.15 in West 2.0 mph 5.8 mph 47 % 0.00 in
14:53 79.0 °F 57.0 °F 30.15 in WSW 1.0 mph 3.5 mph 47 % 0.00 in
14:58 79.0 °F 57.6 °F 30.15 in NNW 0.1 mph 4.6 mph 48 % 0.00 in
15:03 79.0 °F 55.8 °F 30.15 in West 3.1 mph 5.8 mph 45 % 0.00 in
15:08 79.1 °F 56.5 °F 30.15 in WNW 2.9 mph 4.6 mph 46 % 0.00 in
15:13 79.1 °F 56.5 °F 30.14 in NNW 1.3 mph 4.6 mph 46 % 0.00 in
15:18 79.3 °F 55.5 °F 30.14 in WSW 1.1 mph 4.6 mph 44 % 0.00 in
15:23 79.4 °F 55.6 °F 30.14 in West 0.9 mph 4.6 mph 44 % 0.00 in
15:28 79.5 °F 54.4 °F 30.14 in WNW 2.0 mph 3.5 mph 42 % 0.00 in
15:33 79.6 °F 54.5 °F 30.13 in WNW 1.5 mph 4.0 mph 42 % 0.00 in
15:38 79.8 °F 54.7 °F 30.14 in NW 1.3 mph 3.5 mph 42 % 0.00 in
15:43 79.8 °F 55.3 °F 30.13 in WSW 1.1 mph 5.0 mph 43 % 0.00 in
15:48 79.9 °F 56.7 °F 30.13 in WNW 1.4 mph 3.5 mph 45 % 0.00 in
15:53 79.9 °F 56.0 °F 30.14 in West 3.7 mph 6.9 mph 44 % 0.00 in
15:58 79.8 °F 54.7 °F 30.13 in WSW 1.1 mph 3.5 mph 42 % 0.00 in
16:03 79.7 °F 55.2 °F 30.13 in WSW 3.9 mph 4.6 mph 43 % 0.00 in
16:08 79.6 °F 55.8 °F 30.13 in South 1.7 mph 3.5 mph 44 % 0.00 in
16:13 79.4 °F 55.0 °F 30.13 in WSW 2.4 mph 4.0 mph 43 % 0.00 in
16:18 79.2 °F 55.4 °F 30.13 in SW 1.9 mph 4.6 mph 44 % 0.00 in
16:23 79.0 °F 55.2 °F 30.13 in West 0.7 mph 3.5 mph 44 % 0.00 in
16:28 78.9 °F 54.5 °F 30.13 in WSW 3.2 mph 8.1 mph 43 % 0.00 in
16:33 78.8 °F 54.4 °F 30.13 in West 0.9 mph 2.3 mph 43 % 0.00 in
16:38 78.6 °F 54.9 °F 30.12 in WSW 1.5 mph 2.3 mph 44 % 0.00 in
16:44 78.4 °F 55.3 °F 30.12 in WNW 1.3 mph 4.6 mph 45 % 0.00 in
16:49 78.2 °F 54.5 °F 30.11 in SW 5.8 mph 7.0 mph 44 % 0.00 in
16:54 78.0 °F 54.9 °F 30.11 in WSW 2.1 mph 7.0 mph 45 % 0.00 in
16:59 77.8 °F 54.8 °F 30.11 in WSW 1.0 mph 3.5 mph 45 % 0.00 in
17:04 77.6 °F 54.6 °F 30.11 in WSW 3.5 mph 5.8 mph 45 % 0.00 in
17:09 77.3 °F 55.5 °F 30.11 in WSW 0.7 mph 1.2 mph 47 % 0.00 in
17:14 77.2 °F 55.4 °F 30.11 in Calm     47 % 0.00 in
17:19 76.9 °F 55.1 °F 30.11 in Calm   1.2 mph 47 % 0.00 in
17:20 76.9 °F 55.1 °F 30.11 in SSW 0.5 mph 2.3 mph 47 % 0.00 in
17:25 76.6 °F 56.0 °F 30.11 in WSW 1.8 mph 3.0 mph 49 % 0.00 in
17:30 76.3 °F 56.3 °F 30.11 in West 1.2 mph 1.2 mph 50 % 0.00 in
17:35 76.1 °F 56.7 °F 30.11 in WNW 0.1 mph 2.3 mph 51 % 0.00 in
17:40 75.8 °F 56.4 °F 30.11 in WNW 0.9 mph 3.5 mph 51 % 0.00 in
17:46 75.5 °F 55.6 °F 30.10 in West 1.0 mph 5.0 mph 50 % 0.00 in
17:50 75.2 °F 56.4 °F 30.10 in Calm   2.0 mph 52 % 0.00 in
17:56 75.0 °F 55.6 °F 30.10 in West 1.0 mph 4.0 mph 51 % 0.00 in
18:01 74.7 °F 55.9 °F 30.10 in West 2.1 mph 3.5 mph 52 % 0.00 in
18:06 74.4 °F 56.2 °F 30.09 in Calm   4.0 mph 53 % 0.00 in
18:11 74.1 °F 55.9 °F 30.09 in Calm   1.0 mph 53 % 0.00 in
18:15 73.9 °F 56.2 °F 30.09 in Calm   1.2 mph 54 % 0.00 in
18:20 73.6 °F 56.4 °F 30.09 in WNW 0.2 mph 1.2 mph 55 % 0.00 in
18:25 73.4 °F 57.2 °F 30.09 in WNW 0.1 mph 1.2 mph 57 % 0.00 in
18:30 73.1 °F 57.0 °F 30.09 in WNW 1.0 mph 3.0 mph 57 % 0.00 in
18:36 72.8 °F 57.2 °F 30.09 in Calm   3.0 mph 58 % 0.00 in
18:41 72.5 °F 58.3 °F 30.09 in Calm   1.0 mph 61 % 0.00 in
18:45 72.2 °F 57.5 °F 30.09 in Calm   2.0 mph 60 % 0.00 in
18:50 71.9 °F 57.3 °F 30.09 in Calm   4.0 mph 60 % 0.00 in
18:56 71.6 °F 57.0 °F 30.09 in Calm   1.0 mph 60 % 0.00 in
19:01 71.4 °F 58.1 °F 30.09 in WNW 0.8 mph 3.5 mph 63 % 0.00 in
19:06 71.2 °F 57.9 °F 30.09 in West 1.0 mph 5.0 mph 63 % 0.00 in
19:11 70.9 °F 58.2 °F 30.09 in West 1.0 mph 4.0 mph 64 % 0.00 in
19:16 70.7 °F 57.9 °F 30.09 in Calm   3.0 mph 64 % 0.00 in
19:20 70.5 °F 57.7 °F 30.09 in WNW 1.0 mph 3.0 mph 64 % 0.00 in
19:25 70.3 °F 57.5 °F 30.09 in Calm   1.0 mph 64 % 0.00 in
19:31 70.1 °F 57.4 °F 30.09 in West 1.0 mph 3.0 mph 64 % 0.00 in
19:36 69.9 °F 57.2 °F 30.09 in Calm   3.0 mph 64 % 0.00 in
19:40 69.7 °F 57.4 °F 30.09 in Calm   1.0 mph 65 % 0.00 in
19:45 69.4 °F 57.1 °F 30.08 in Calm   3.0 mph 65 % 0.00 in
19:51 69.2 °F 57.4 °F 30.08 in WNW 1.0 mph 3.0 mph 66 % 0.00 in
19:56 69.0 °F 57.6 °F 30.09 in Calm   2.0 mph 67 % 0.00 in
20:01 68.8 °F 57.8 °F 30.09 in WNW 0.2 mph 2.3 mph 68 % 0.00 in
20:06 68.6 °F 58.0 °F 30.09 in WNW 0.5 mph 1.2 mph 69 % 0.00 in
20:11 68.5 °F 57.9 °F 30.09 in Calm   2.3 mph 69 % 0.00 in
20:16 68.3 °F 57.7 °F 30.08 in Calm     69 % 0.00 in
20:21 68.1 °F 57.5 °F 30.09 in Calm     69 % 0.00 in
20:26 67.8 °F 57.3 °F 30.09 in West 0.4 mph 2.3 mph 69 % 0.00 in
20:31 67.6 °F 57.5 °F 30.09 in West 0.1 mph 2.3 mph 70 % 0.00 in
20:36 67.4 °F 57.7 °F 30.09 in Calm   1.2 mph 71 % 0.00 in
20:41 67.3 °F 57.6 °F 30.09 in Calm     71 % 0.00 in
20:46 67.1 °F 57.4 °F 30.09 in Calm     71 % 0.00 in
20:51 66.9 °F 57.6 °F 30.09 in West 0.1 mph 1.2 mph 72 % 0.00 in
20:56 66.6 °F 57.7 °F 30.09 in West 0.3 mph 1.2 mph 73 % 0.00 in
21:01 66.4 °F 57.5 °F 30.09 in West 0.1 mph 1.2 mph 73 % 0.00 in
21:06 66.2 °F 57.7 °F 30.09 in West 0.4 mph 2.3 mph 74 % 0.00 in
21:11 66.0 °F 57.5 °F 30.09 in West 0.6 mph 2.3 mph 74 % 0.00 in
21:16 65.8 °F 58.0 °F 30.09 in West 0.7 mph 2.3 mph 76 % 0.00 in
21:21 65.6 °F 58.2 °F 30.09 in West 0.1 mph 1.2 mph 77 % 0.00 in
21:26 65.5 °F 58.1 °F 30.09 in Calm   1.2 mph 77 % 0.00 in
21:31 65.4 °F 58.4 °F 30.09 in Calm     78 % 0.00 in
21:36 65.3 °F 58.6 °F 30.09 in West 1.4 mph 3.5 mph 79 % 0.00 in
21:41 65.2 °F 58.5 °F 30.09 in West 0.4 mph 2.0 mph 79 % 0.00 in
21:47 65.0 °F 58.7 °F 30.08 in West 0.9 mph 1.2 mph 80 % 0.00 in
21:51 64.9 °F 58.9 °F 30.09 in Calm   1.2 mph 81 % 0.00 in
21:57 64.7 °F 58.7 °F 30.08 in West 0.7 mph 2.3 mph 81 % 0.00 in
22:02 64.6 °F 58.6 °F 30.08 in West 0.3 mph 1.2 mph 81 % 0.00 in
22:07 64.4 °F 58.4 °F 30.08 in West 0.9 mph 2.0 mph 81 % 0.00 in
22:12 64.2 °F 58.2 °F 30.08 in West 0.4 mph 1.2 mph 81 % 0.00 in
22:17 64.1 °F 58.1 °F 30.08 in West 0.4 mph 1.2 mph 81 % 0.00 in
22:22 63.9 °F 58.0 °F 30.08 in West 1.3 mph 3.5 mph 81 % 0.00 in
22:27 63.8 °F 57.9 °F 30.08 in West 1.4 mph 3.5 mph 81 % 0.00 in
22:32 63.7 °F 58.1 °F 30.08 in WSW 0.3 mph 1.2 mph 82 % 0.00 in
22:37 63.6 °F 58.0 °F 30.08 in WSW 0.1 mph 1.2 mph 82 % 0.00 in
22:42 63.5 °F 58.2 °F 30.08 in WSW 0.6 mph 2.3 mph 83 % 0.00 in
22:47 63.4 °F 58.1 °F 30.07 in WSW 0.7 mph 2.3 mph 83 % 0.00 in
22:52 63.3 °F 58.0 °F 30.07 in WSW 0.2 mph 1.2 mph 83 % 0.00 in
22:57 63.2 °F 58.3 °F 30.07 in Calm   2.3 mph 84 % 0.00 in
23:02 63.1 °F 58.2 °F 30.07 in WSW 1.2 mph 3.5 mph 84 % 0.00 in
23:07 63.0 °F 58.1 °F 30.08 in Calm     84 % 0.00 in
23:12 63.0 °F 57.8 °F 30.07 in WSW 1.0 mph 2.3 mph 83 % 0.00 in
23:17 62.9 °F 57.7 °F 30.07 in WSW 1.1 mph 2.3 mph 83 % 0.00 in
23:22 62.9 °F 57.3 °F 30.07 in Calm   1.2 mph 82 % 0.00 in
23:23 62.9 °F 57.3 °F 30.07 in Calm     82 % 0.00 in
23:28 62.9 °F 57.3 °F 30.07 in WNW 1.6 mph 3.5 mph 82 % 0.00 in
23:33 62.8 °F 56.9 °F 30.07 in WNW 0.3 mph 3.5 mph 81 % 0.00 in
23:43 63.0 °F 56.7 °F 30.07 in West 1.4 mph 3.5 mph 80 % 0.00 in
23:48 63.0 °F 56.7 °F 30.06 in WNW 0.9 mph 5.0 mph 80 % 0.00 in
23:53 63.2 °F 56.9 °F 30.06 in WNW 2.3 mph 3.5 mph 80 % 0.00 in
23:58 63.4 °F 57.1 °F 30.06 in West 1.8 mph 3.5 mph 80 % 0.00 in
Crab Meadow Weather
Compliments of Weather Underground - 3 mb

Script developed by  Jim McMurry - jmcmurry@mwt.net Adapted for the template by  Wim van der Kuil - Leuven-Template.eu

Wind Chill: Everyone has noticed that in winter it seems colder when the wind is blowing. Mothers recognize this and tell their children to wear more clothes. The question the children ask is how much more clothes. Mothers answer very precisely because Mothers know everything. For the rest of us, wind chill calculations are the basis for determining the effect of wind on body heat loss. The wind chill equivalent temperature equation is: Wind chill temperature = 35.74 + 0.6215T - 35.75V (**0.16) + 0.4275TV(**0.16) where T is the air temperature in Fahrenheit and V is the wind speed in MPH.